RH
18 22 24 25 26 26 28 31 31 30 28 26 24 21 18 13 8 5 4 5 5 5 5 5 4 4 3 2 3 3 4 4 4 4 4 5 5 5 6 5 6 6 5 5 5 5 5 5 5 4 4 3 4 4 6 9 8 14 23 27 24 15 17 28 39 45 46 45 45 45 45 45 43 43 41 38 38 37 36 36 39 45 51 60 65 67 65 62
12 13 15 17 18 17 18 20 21 21 20 18 16 12 9 7 5 5 6 6 6 7 7 7 6 5 5 4 4 3 3 3 4 6 5 6 6 6 6 6 6 5 6 6 6 7 7 8 7 6 6 4 7 9 12 19 18 17 20 17 12 7 14 34 48 48 46 46 44 43 44 43 42 41 39 36 36 34 34 36 42 48 51 54 55 58 60 60
8 8 8 8 9 9 9 10 11 11 11 10 8 7 7 7 7 7 7 6 6 6 6 7 7 7 6 6 5 5 4 4 8 9 6 5 4 4 4 4 4 3 4 4 4 5 5 6 7 7 8 5 8 15 21 25 26 27 26 19 12 13 28 41 44 43 45 47 47 47 45 44 43 42 40 39 36 35 39 42 45 51 52 52 54 56 59 60
7 7 6 5 5 5 4 5 5 6 7 8 9 11 13 14 14 15 14 13 11 9 7 6 6 6 7 7 7 7 6 7 12 12 7 5 5 5 5 5 5 4 4 4 4 4 3 4 5 5 6 6 9 16 25 26 27 32 30 23 20 25 42 47 42 42 41 42 46 47 46 45 43 41 39 36 35 38 46 51 52 52 49 50 53 57 60 62
7 8 8 8 8 8 8 9 10 13 15 17 20 21 23 23 23 23 21 20 19 17 15 12 9 7 6 6 7 7 8 10 12 11 7 7 7 7 8 8 8 7 6 5 4 4 4 4 4 5 5 6 9 14 24 29 28 31 28 24 25 31 41 42 40 41 38 39 41 42 42 41 39 36 32 29 33 40 47 53 54 52 50 51 51 52 57 61
11 11 15 15 16 16 15 18 21 23 26 27 28 29 30 30 29 29 27 26 25 23 21 19 15 12 8 7 6 6 7 9 10 9 8 8 8 8 8 8 8 8 8 7 6 5 5 5 4 5 5 6 10 13 20 29 32 31 28 27 30 34 37 34 33 33 32 34 36 36 36 33 29 27 26 29 35 40 44 48 50 49 47 49 49 49 51 54
18 15 19 19 19 21 20 23 28 29 31 32 31 32 32 32 32 31 31 30 29 28 26 22 17 13 12 9 7 6 6 7 10 11 10 9 8 8 7 7 7 8 8 8 7 6 6 6 5 5 5 5 9 13 20 28 31 30 28 31 32 33 32 29 31 33 34 35 35 35 33 28 25 23 23 28 35 38 38 41 44 45 44 44 47 49 49 49
27 20 21 23 18 20 25 26 31 32 31 31 30 30 29 29 30 29 30 30 30 30 29 25 18 12 11 10 10 9 9 10 11 10 9 9 8 8 7 7 8 8 9 8 8 8 8 7 7 7 6 7 9 15 22 25 27 28 29 31 33 34 31 26 26 30 35 36 34 33 28 21 20 24 25 28 32 35 37 38 38 40 42 43 46 48 49 48
33 26 22 26 21 18 27 30 31 31 30 30 28 27 27 27 27 27 28 28 29 29 29 27 21 15 11 10 10 11 13 14 11 8 8 8 7 7 8 8 9 9 9 9 9 9 10 9 9 9 9 10 10 14 20 22 24 27 29 31 33 33 29 24 24 27 30 29 27 25 20 15 16 23 29 29 30 33 35 36 36 37 38 40 41 41 42 43
30 32 25 25 24 19 25 30 30 30 29 29 28 28 27 26 26 26 28 28 29 29 28 27 23 20 15 11 10 11 15 14 10 9 8 8 8 9 9 9 9 10 10 10 11 11 11 11 10 10 10 10 10 11 14 16 17 19 22 24 24 26 27 28 30 29 27 25 22 19 16 15 16 22 27 27 28 30 32 33 35 36 37 37 38 37 37 37
22 29 26 23 23 19 19 24 27 29 29 29 29 28 27 26 26 26 28 29 29 29 27 25 22 21 18 13 10 11 14 13 11 11 10 10 11 10 10 10 10 10 10 10 11 12 12 11 10 10 11 11 11 12 12 12 13 15 16 16 15 18 22 27 29 24 22 22 21 21 22 21 21 25 27 26 27 30 31 33 34 36 37 38 38 39 38 38
20 23 24 23 22 20 19 19 21 24 26 27 27 26 27 26 26 27 28 29 30 29 26 23 20 19 18 13 11 12 13 13 13 12 12 12 12 12 11 11 11 11 11 10 11 11 12 12 11 11 11 12 13 14 16 16 16 17 16 15 14 14 15 19 22 22 22 25 28 30 31 29 29 31 30 29 29 30 32 34 36 37 38 39 39 40 40 40
24 24 25 25 25 25 25 23 22 22 23 24 24 24 25 25 26 28 28 29 30 27 22 18 16 16 15 12 12 13 14 15 14 13 13 13 12 12 11 10 10 10 10 10 10 10 11 12 13 13 13 13 13 14 16 16 15 16 16 18 18 18 21 22 25 29 29 32 35 36 37 38 37 37 35 33 32 32 35 37 39 41 41 41 41 41 42 42
26 26 27 28 28 28 27 27 26 24 22 22 23 24 24 25 27 28 29 30 29 24 17 13 13 14 12 12 14 15 16 15 15 14 14 13 12 11 10 9 9 8 9 9 10 10 11 13 15 15 14 17 18 17 18 18 18 21 25 27 26 27 32 33 33 36 36 37 39 38 40 44 44 41 37 34 33 33 35 37 39 43 45 46 46 46 45 45
24 25 26 27 27 27 27 27 25 23 21 22 23 25 25 26 27 28 30 30 27 18 11 11 13 12 12 14 16 17 16 15 15 15 14 12 10 9 8 8 8 9 10 11 12 13 14 15 16 17 23 30 30 27 27 27 29 34 35 34 34 35 39 41 40 39 39 39 41 41 42 46 48 45 40 38 36 36 37 39 42 45 48 50 50 49 48 49
22 21 22 22 22 23 23 23 22 21 21 23 25 26 27 28 28 29 30 27 20 11 9 14 13 10 14 19 18 16 16 16 15 13 11 10 8 8 9 9 10 11 11 14 16 16 17 19 19 22 30 37 37 36 33 32 37 42 42 40 39 38 38 39 40 41 42 41 41 41 42 47 50 48 46 45 43 43 44 45 47 49 51 51 52 52 53 54
21 19 18 18 17 18 18 20 21 21 22 25 27 26 27 28 29 29 27 20 10 7 13 16 14 16 20 20 17 16 16 14 12 10 8 8 8 9 9 9 10 11 13 16 18 16 16 21 25 29 36 39 39 41 38 36 38 38 38 38 35 31 30 35 42 43 42 42 41 40 42 47 50 50 49 48 47 48 50 51 51 51 53 55 57 59 60 61
20 19 18 17 17 17 19 20 21 22 24 27 26 26 29 30 30 27 19 11 6 11 17 16 16 23 22 17 15 14 12 9 8 8 7 8 9 8 9 8 9 12 13 15 16 16 16 22 29 36 43 43 40 39 36 36 36 33 33 32 29 27 30 42 52 50 44 43 43 42 43 46 50 51 50 51 52 54 55 54 54 55 58 61 63 65 66 67
17 15 14 13 14 15 18 22 24 25 26 27 26 28 30 29 26 19 10 7 9 14 17 17 17 20 18 15 13 10 7 8 8 7 8 9 7 8 9 8 12 14 10 13 21 23 24 29 36 39 40 38 35 33 32 33 31 30 30 29 31 38 45 53 58 54 51 50 49 49 50 51 54 55 56 58 59 59 58 57 58 61 64 65 67 69 70 72
14 14 14 15 16 19 22 27 29 28 27 26 27 30 30 23 16 9 6 9 13 16 18 20 20 18 15 12 9 8 8 9 9 8 8 9 8 10 10 9 14 15 10 16 29 35 38 38 35 30 28 29 31 29 27 27 26 26 29 35 47 55 55 58 60 59 57 56 55 56 56 57 59 61 64 65 63 62 61 61 63 66 68 70 70 72 72 74
22 22 24 24 25 26 27 29 29 26 26 27 30 32 25 14 7 4 7 12 17 19 19 20 19 15 12 9 8 10 11 10 9 10 10 10 11 10 11 12 14 13 13 18 31 44 45 36 30 29 31 35 35 31 26 25 27 31 35 47 59 57 53 55 58 56 53 54 57 58 61 63 65 67 69 69 66 64 63 65 68 69 72 74 73 74 75 76
29 29 29 30 30 30 29 31 30 27 29 31 31 26 14 6 3 3 9 15 19 19 16 16 15 11 9 9 10 13 14 12 11 12 12 12 13 12 14 15 13 13 16 21 32 42 37 31 37 39 38 41 38 31 25 25 30 34 40 52 57 49 46 49 49 48 46 48 56 61 63 66 69 72 73 73 70 69 69 69 69 69 70 72 71 71 72 74
31 31 32 33 34 33 33 33 31 30 32 30 24 14 5 2 3 4 11 17 17 16 13 13 13 10 10 11 13 17 14 12 13 12 13 13 13 14 14 15 16 14 20 26 27 29 30 36 43 37 33 34 28 22 20 20 22 29 38 46 44 36 36 39 41 48 48 47 56 61 65 70 73 76 78 78 77 76 75 71 68 67 67 67 68 69 72 73
33 33 33 34 33 33 33 32 29 30 29 22 11 4 2 3 3 5 11 15 15 14 13 12 12 11 12 13 16 18 15 12 14 13 13 14 13 15 13 16 21 21 30 36 24 21 30 35 34 30 28 25 21 19 19 19 22 29 35 33 30 28 29 31 37 49 55 54 56 60 69 74 75 80 82 81 81 79 76 72 69 68 68 70 72 74 75 76
33 33 33 33 33 33 34 30 26 24 18 10 3 2 3 3 3 5 10 17 17 14 13 13 14 13 13 15 16 19 17 13 14 14 13 14 14 15 13 15 23 31 43 41 23 21 27 27 26 25 24 23 24 24 25 27 28 31 32 28 30 32 33 34 38 49 60 62 58 59 74 80 73 75 80 80 81 80 77 75 72 72 73 75 77 79 81 84
33 33 33 34 33 33 30 22 17 14 7 3 2 3 3 3 4 7 16 27 22 14 15 15 16 17 15 15 16 19 18 15 15 15 14 14 14 15 15 15 20 29 38 33 21 24 29 29 28 26 26 28 29 29 31 32 32 33 34 33 36 37 38 41 44 50 57 62 62 62 74 81 74 71 76 79 80 79 76 73 71 72 74 75 78 81 84 88
34 33 32 29 26 23 18 11 7 5 2 2 3 3 3 4 4 7 24 40 29 16 18 18 19 20 17 17 17 17 18 18 18 15 13 15 15 16 18 19 19 22 27 28 24 29 32 28 27 27 28 27 27 31 32 32 33 31 28 34 40 37 37 42 46 50 53 59 65 64 70 77 75 74 77 80 81 79 73 69 70 73 74 75 77 79 79 81
27 23 19 14 11 9 6 4 3 2 2 3 3 4 4 5 7 13 29 41 31 19 21 22 21 20 19 20 18 16 18 18 18 17 16 18 18 17 19 22 25 27 30 29 28 33 32 24 23 22 22 24 29 33 32 30 29 21 15 29 38 33 34 40 45 49 50 58 64 61 68 80 81 77 76 79 81 78 72 71 75 76 76 78 78 72 68 66
12 8 6 4 4 3 3 3 3 3 4 3 5 5 4 6 12 21 31 32 26 22 22 23 22 20 21 21 17 17 18 17 20 22 21 21 20 20 22 27 31 31 34 34 32 35 30 20 18 15 15 22 28 31 27 20 20 14 7 16 21 19 26 36 45 48 48 57 61 57 65 80 84 79 75 79 80 76 76 78 79 80 79 74 63 52 43 40
5 5 5 4 5 4 4 4 4 5 5 6 7 4 4 10 16 27 36 31 25 25 23 22 22 21 21 20 17 19 20 21 24 23 22 22 23 24 25 32 34 30 33 39 39 38 28 16 14 13 14 19 24 27 21 13 16 13 5 8 10 11 20 31 41 47 55 64 61 53 56 65 74 75 72 76 77 77 82 82 81 81 73 55 40 33 28 25
7 7 7 6 6 7 7 7 7 7 7 7 6 3 5 9 12 25 35 27 22 24 23 22 23 21 21 20 20 22 23 23 23 19 18 18 19 22 26 33 35 29 31 37 41 42 28 12 12 14 13 14 19 22 18 14 13 10 7 7 10 13 15 24 36 47 64 70 55 45 46 53 66 70 67 72 77 79 82 79 78 73 56 39 32 31 29 28
8 8 8 8 8 8 7 8 8 8 8 7 5 5 9 9 13 25 32 26 20 22 24 24 23 21 22 22 23 26 26 24 22 17 15 15 13 15 21 27 29 29 32 35 41 43 27 11 13 15 13 12 13 13 16 18 12 9 10 7 21 43 40 39 52 53 53 50 38 37 45 50 59 63 65 72 75 75 75 74 69 58 43 35 34 31 30 31
9 9 9 9 9 8 8 8 8 8 8 8 6 8 11 14 20 25 27 25 21 22 26 26 24 24 24 23 25 28 26 23 22 19 15 14 11 12 17 20 23 29 32 31 33 34 26 16 13 14 14 15 13 8 11 21 18 15 17 15 37 72 76 73 76 65 52 45 36 38 50 57 59 61 64 68 70 71 71 70 62 50 41 37 34 31 30 30
9 9 9 10 9 9 9 9 9 9 8 8 9 9 12 19 25 22 19 20 21 24 27 27 27 27 26 25 26 28 27 22 20 18 13 10 9 11 12 13 17 23 26 26 28 32 31 24 19 18 16 14 15 11 10 19 21 18 21 20 28 53 72 80 76 66 63 57 42 39 50 58 62 62 60 60 67 71 69 68 61 49 43 39 34 32 30 29
7 8 9 10 10 10 10 9 9 9 9 9 9 9 12 20 23 20 18 20 23 26 27 27 29 29 27 27 27 26 25 23 21 17 9 7 8 10 10 9 10 14 18 21 29 40 42 33 27 27 23 16 15 13 11 13 14 16 18 14 19 34 49 61 61 54 58 61 51 49 52 55 59 58 54 56 64 67 66 65 57 47 41 36 31 30 28 28
6 8 9 9 10 10 10 10 9 9 9 10 10 10 14 20 21 19 19 21 24 26 26 27 29 28 27 26 25 24 23 21 21 18 13 12 11 10 10 10 9 10 13 16 23 36 44 40 35 33 31 27 20 15 14 14 13 15 14 10 21 38 46 56 59 49 51 61 54 46 49 53 54 49 48 57 62 62 62 58 50 43 37 32 29 29 27 25
6 8 9 9 9 10 10 9 9 10 11 10 10 13 17 20 20 20 20 21 23 24 25 26 27 28 26 22 20 21 21 19 17 16 16 17 13 10 10 10 11 10 11 16 19 25 35 41 40 37 35 34 29 22 18 19 19 16 15 13 22 42 51 55 60 60 67 73 59 46 46 47 46 45 48 56 57 55 55 50 45 39 31 29 28 27 25 23
7 9 10 9 9 10 9 8 8 10 11 11 11 14 18 19 19 21 21 22 23 24 23 24 25 27 24 18 15 16 17 16 15 16 17 17 15 13 11 9 11 11 11 14 17 20 27 33 37 39 38 37 37 32 24 24 26 22 19 16 18 36 44 38 47 64 78 87 75 56 45 36 38 46 52 55 52 49 50 47 41 33 26 27 27 26 27 27
8 10 9 8 9 10 9 8 8 10 11 10 11 15 19 20 21 22 22 23 24 23 23 22 22 22 19 15 13 13 12 12 14 16 19 19 16 13 11 10 11 12 12 13 15 19 24 28 33 38 39 41 40 37 31 28 32 29 21 15 16 27 36 34 40 53 70 87 82 66 54 41 39 50 55 54 51 49 48 44 36 28 26 29 28 28 31 33
9 10 9 9 9 9 9 9 10 10 10 11 13 17 20 21 22 23 23 24 22 21 21 21 19 17 15 13 12 10 9 9 11 12 14 17 16 11 11 11 11 10 12 12 13 18 22 22 25 28 33 41 42 39 37 33 37 37 25 18 20 20 26 37 45 55 69 74 71 79 78 54 44 56 57 52 51 48 44 38 30 27 30 34 35 39 47 51
9 10 9 9 9 9 10 12 12 11 12 14 16 18 21 22 23 24 23 21 19 18 18 18 16 14 12 11 11 9 9 8 9 9 11 13 13 11 10 11 11 10 10 11 12 15 19 16 13 17 22 28 35 38 39 37 39 39 27 22 27 21 24 41 52 59 62 49 52 81 85 58 49 55 50 48 50 44 37 31 27 32 38 40 42 49 58 60
10 10 10 10 11 11 12 13 13 13 15 17 19 20 22 22 22 23 21 19 17 15 15 14 13 12 11 10 9 9 9 7 8 9 9 11 11 10 11 11 11 11 9 11 11 13 22 19 11 15 16 18 30 40 42 43 42 35 24 23 30 27 25 36 43 44 44 41 47 65 65 52 48 45 40 43 45 37 32 29 30 36 40 40 44 50 52 49
10 10 11 12 12 13 13 14 15 16 16 18 20 21 22 21 21 20 18 17 15 13 12 11 11 11 10 11 11 11 11 10 9 9 8 10 10 10 12 11 11 11 9 11 11 12 24 24 11 12 13 14 28 40 43 45 40 31 23 24 31 28 21 25 30 35 46 50 49 53 53 44 36 34 35 38 37 32 31 32 33 38 43 47 53 55 49 43
10 11 13 13 13 14 14 15 15 15 16 19 20 20 20 19 19 18 16 14 13 12 11 9 9 9 8 9 10 11 13 12 10 10 9 10 10 11 12 11 11 11 10 10 11 11 19 21 13 16 23 25 34 43 44 40 34 28 26 27 29 27 24 25 29 46 64 60 49 54 57 42 28 30 32 32 32 30 33 35 34 38 49 58 59 51 42 39
12 12 13 13 14 14 14 16 16 13 15 18 18 18 17 16 16 16 14 12 11 10 9 7 7 8 7 8 7 7 10 10 9 10 10 9 11 11 11 12 11 11 10 11 12 10 13 16 16 19 27 31 33 34 31 26 26 26 26 28 29 27 28 26 28 49 68 60 47 46 43 32 27 30 31 30 31 29 31 34 33 39 50 53 48 40 37 40
12 12 13 14 15 13 11 15 16 12 12 14 15 15 15 13 11 12 11 9 9 8 8 7 7 8 8 8 7 7 8 9 9 9 9 10 11 11 11 12 11 11 11 10 12 12 11 14 18 18 18 20 19 19 19 18 21 23 25 28 29 27 28 27 27 37 45 44 40 34 30 31 30 28 29 31 32 30 30 32 34 41 45 41 37 35 37 43
11 13 14 14 14 12 11 14 15 12 12 11 10 12 12 10 9 9 8 7 7 7 7 6 6 7 7 7 7 7 7 8 9 9 10 10 11 11 11 13 14 13 11 10 12 13 11 13 20 19 14 15 16 17 19 18 17 20 25 27 27 25 26 26 26 26 28 37 40 30 30 37 31 26 31 36 34 31 30 33 38 41 38 34 34 36 40 45
11 12 12 12 12 11 11 12 12 11 11 9 8 9 9 9 8 7 7 6 6 7 6 6 6 5 6 6 7 7 7 9 10 9 10 10 11 12 10 11 15 13 11 11 12 13 13 15 18 17 14 15 16 18 21 22 21 23 25 28 27 26 25 24 25 23 27 37 38 30 34 38 30 28 35 37 33 30 31 36 39 37 34 33 35 37 41 46
11 10 10 9 9 8 8 8 9 9 8 7 6 6 6 7 6 5 6 6 6 7 6 6 6 5 6 6 6 7 7 9 9 9 10 10 11 12 11 11 13 12 11 12 12 12 14 15 16 16 15 14 16 20 24 26 26 24 24 27 29 28 27 25 24 24 28 32 31 32 39 35 28 31 36 34 31 30 32 36 36 34 33 34 36 40 43 47
10 9 8 7 6 6 6 6 6 7 6 5 5 5 4 5 5 5 5 5 5 6 5 6 6 6 7 7 7 8 8 9 9 10 10 11 11 12 12 12 12 12 12 11 12 13 14 14 16 16 15 15 17 21 25 28 29 26 23 26 30 30 28 25 23 25 29 32 33 38 41 33 28 33 35 32 32 32 35 38 37 33 32 34 37 41 45 49
8 7 7 7 4 3 4 5 5 6 6 5 4 4 4 4 4 5 5 5 5 5 5 5 6 6 7 7 7 8 8 9 10 10 11 11 12 12 13 13 13 14 14 13 13 13 13 15 15 15 17 16 16 21 25 26 27 26 23 26 29 28 26 24 24 26 29 32 36 40 38 31 30 34 35 34 37 39 40 40 35 31 31 34 38 41 46 50
7 5 6 7 4 3 3 3 4 5 5 4 4 4 3 4 4 5 5 5 5 5 5 5 6 6 6 7 7 8 8 9 9 10 11 12 12 13 13 13 13 14 16 16 16 15 15 15 15 17 21 17 16 22 23 23 31 32 26 24 26 27 27 27 27 28 30 34 37 37 33 30 33 37 38 40 42 44 43 37 31 29 31 34 38 42 47 49
Wind_Speed
12 12 12 13 13 12 11 10 9 8 7 7 7 7 7 8 8 8 8 8 8 8 8 8 8 8 7 6 6 5 6 5 5 5 4 4 4 4 4 4 4 5 6 6 6 6 7 7 8 8 7 7 6 7 8 8 8 10 15 18 18 18 14 7 8 9 10 9 9 9 10 9 11 15 20 22 22 19 17 16 17 18 19 20 19 20 21 23
11 11 11 11 11 11 10 9 9 8 7 7 7 7 8 9 9 10 10 10 9 9 9 9 9 8 8 7 7 6 6 6 6 4 3 4 4 4 4 4 4 5 6 6 6 7 8 8 8 8 8 8 6 7 7 7 8 9 11 14 15 14 8 5 9 9 9 13 14 13 11 10 11 15 21 23 22 21 19 18 17 16 17 20 22 24 26 26
11 10 10 10 10 10 9 9 8 8 7 8 8 9 9 10 11 11 11 11 11 10 10 10 9 9 8 7 7 7 7 7 6 3 4 5 5 5 5 6 6 6 6 7 7 7 8 9 9 8 8 9 8 7 6 6 9 9 10 12 12 8 5 8 13 13 14 16 16 14 13 13 15 19 21 23 23 23 20 19 19 18 19 22 24 25 26 27
11 11 11 10 10 10 10 9 9 9 9 10 10 11 12 12 13 13 13 12 12 11 11 10 10 9 9 8 7 7 7 7 5 4 6 8 7 7 7 7 7 7 7 7 8 8 8 9 9 8 8 8 8 7 7 7 8 10 12 12 9 5 7 13 16 15 18 20 21 18 17 17 18 20 22 23 23 22 20 19 19 21 22 23 24 25 26 28
12 11 12 12 12 11 11 11 11 11 12 12 13 13 14 14 14 13 13 13 13 12 12 11 11 10 10 9 9 8 7 7 6 7 8 8 8 9 9 10 10 9 9 8 8 9 9 9 9 9 8 6 8 9 8 8 8 11 14 13 10 7 10 17 18 20 22 24 25 24 23 22 20 21 23 25 24 22 19 18 20 23 24 24 25 26 27 28
12 11 12 12 12 12 12 12 12 13 13 13 14 14 14 14 14 14 14 13 13 13 12 12 11 11 10 10 10 9 8 8 7 8 9 9 10 10 11 11 11 11 11 10 9 9 9 10 9 8 9 6 8 9 8 9 11 13 15 14 13 11 14 17 19 22 25 25 26 26 26 25 23 22 24 25 23 22 20 20 22 24 25 26 26 26 27 29
11 11 11 11 11 11 11 11 11 12 13 13 13 13 14 14 14 14 14 15 14 14 14 13 12 11 11 11 11 11 10 8 7 8 10 11 11 12 12 11 12 12 11 11 10 9 9 9 8 8 9 8 8 8 8 10 12 15 16 16 15 13 16 18 20 23 25 26 27 27 27 27 25 23 23 24 23 23 22 22 23 24 26 27 27 27 27 28
9 9 10 11 10 9 9 10 10 11 12 13 13 13 14 14 15 15 15 16 16 16 16 15 14 12 12 12 12 13 12 10 9 9 11 11 12 12 12 12 12 12 11 11 11 9 9 9 8 9 9 8 7 8 10 11 13 15 16 16 17 17 19 21 22 24 25 26 27 27 27 27 25 24 24 24 25 25 24 24 25 25 27 27 28 28 28 29
8 8 9 10 9 8 8 8 9 10 11 12 13 14 14 15 16 16 16 16 17 17 17 16 15 14 14 13 14 14 13 12 11 11 12 12 12 11 11 11 10 10 10 10 9 9 8 8 9 9 8 8 9 9 11 13 14 16 17 18 19 20 22 22 23 25 25 26 27 26 25 25 25 24 24 25 26 26 25 25 25 26 26 27 28 28 29 30
8 8 8 8 9 8 6 7 9 10 11 12 13 15 15 16 17 17 17 18 17 17 17 16 16 15 15 15 15 13 12 12 12 12 12 12 11 11 10 10 10 9 9 9 8 9 9 9 9 9 8 8 10 10 12 15 15 16 18 20 21 21 21 21 23 25 26 27 28 26 24 25 26 25 25 26 25 24 24 25 25 26 27 27 28 29 30 30
7 7 7 8 8 8 7 7 9 10 11 12 14 15 16 17 17 17 18 18 18 17 17 16 16 16 16 15 13 12 12 12 11 11 11 11 10 10 10 10 10 9 9 9 8 8 10 10 9 9 9 9 9 10 13 14 14 15 16 17 17 18 20 22 25 26 27 29 28 24 22 23 24 23 25 27 26 25 24 25 26 26 27 28 28 29 30 30
7 7 7 8 9 9 9 9 10 11 12 13 14 16 16 16 17 17 18 18 18 17 17 16 16 16 15 14 12 11 10 10 10 9 9 9 9 9 9 8 8 8 8 8 7 7 8 8 8 8 8 9 9 10 11 11 12 12 14 15 13 14 16 18 22 24 24 25 24 20 18 20 22 22 24 26 27 27 26 25 26 26 27 27 28 29 29 29
8 8 8 9 9 10 11 12 12 13 13 14 15 16 16 17 17 17 18 19 18 18 17 16 15 14 13 12 11 10 9 8 9 8 8 8 8 8 9 9 9 8 8 8 8 7 7 7 7 6 7 8 9 9 10 11 12 12 12 13 12 11 12 13 15 19 21 22 20 17 15 19 22 22 24 26 27 27 26 26 25 25 26 26 27 27 27 28
9 10 10 10 11 12 13 14 14 15 15 15 15 15 16 16 16 18 19 19 19 18 17 16 14 13 11 10 9 9 8 8 8 8 8 9 9 9 10 10 9 9 8 8 8 7 7 6 5 5 6 7 7 7 8 8 9 10 9 10 10 10 10 10 10 14 18 18 16 14 14 18 21 22 25 27 27 27 27 27 26 25 25 25 25 25 25 26
11 12 12 13 13 14 14 15 16 16 15 14 14 14 15 15 16 18 18 18 18 18 17 15 12 11 10 8 8 8 9 8 8 8 10 11 12 11 10 9 8 8 7 6 5 5 5 5 5 5 5 7 6 5 4 6 6 6 8 8 8 8 7 8 8 11 14 15 14 14 13 14 17 21 24 26 26 27 27 27 27 26 25 24 24 24 24 24
12 13 14 15 15 15 15 16 16 15 14 14 13 13 14 15 16 18 18 18 17 16 14 12 11 10 8 8 8 8 9 8 9 10 12 12 12 11 11 10 9 8 7 6 6 6 6 4 4 4 4 5 4 4 5 5 4 4 5 7 7 10 10 10 9 10 13 13 15 15 14 14 16 19 22 24 26 27 27 27 27 26 25 25 24 24 23 23
14 15 16 16 16 16 16 15 14 13 13 12 13 13 13 15 17 18 17 16 15 14 11 10 9 7 6 8 8 8 9 10 12 12 12 11 11 10 9 9 8 7 6 5 6 6 5 3 3 4 3 3 3 5 6 7 6 4 7 10 11 14 17 14 8 8 11 12 15 17 18 16 16 19 22 24 26 27 27 28 28 28 27 26 24 23 23 22
16 17 17 17 17 17 16 14 13 12 11 12 12 12 14 16 17 17 16 14 13 11 9 7 7 5 5 8 9 10 12 13 13 12 10 10 10 10 9 8 7 6 5 5 5 5 4 3 3 4 3 3 5 8 9 9 10 10 12 15 15 16 18 14 6 6 8 11 13 16 17 16 16 19 22 24 26 27 28 29 29 28 26 25 24 23 22 22
17 17 17 16 15 14 13 12 10 10 10 11 11 13 15 17 17 16 14 13 11 9 7 8 9 8 9 11 12 13 13 13 11 10 10 10 10 9 8 8 6 6 7 7 6 6 6 5 4 5 6 8 9 11 11 9 9 10 10 11 12 13 13 10 7 8 8 9 11 13 14 15 16 18 21 22 25 26 28 29 28 27 25 24 23 23 22 22
14 13 12 11 10 10 9 8 8 8 9 10 12 14 16 17 17 14 12 10 8 10 11 10 10 10 11 12 12 12 12 10 10 11 10 9 10 8 7 7 7 7 8 6 3 5 5 5 8 10 11 10 9 9 9 8 8 8 5 5 8 9 9 7 6 8 10 9 9 10 11 12 14 16 17 20 24 26 28 28 27 25 24 24 23 23 22 22
11 11 11 11 11 10 9 9 8 8 9 11 13 15 16 16 13 11 9 7 9 12 12 11 11 11 11 12 10 10 11 10 10 12 11 11 11 8 7 8 7 8 8 3 1 3 3 7 13 12 9 7 7 8 9 8 6 5 3 4 5 6 7 6 6 8 10 10 10 12 11 9 10 12 14 19 23 25 26 27 27 26 25 24 23 23 23 22
11 11 11 10 10 10 10 11 10 10 12 13 14 15 15 13 11 8 6 6 10 12 12 11 11 12 12 12 11 10 10 8 9 12 12 12 11 9 8 8 7 8 7 3 1 3 5 13 15 9 6 5 7 9 10 8 7 6 5 3 3 6 8 7 8 10 12 13 10 11 11 8 9 12 14 18 21 22 25 26 26 26 26 25 24 24 23 23
10 10 10 10 11 11 12 13 12 12 14 14 15 15 13 12 10 7 4 7 11 12 13 12 11 13 14 12 11 10 9 9 10 14 14 14 13 11 10 9 8 8 6 5 4 5 10 15 12 8 7 8 9 9 8 8 7 7 6 5 6 8 9 10 10 10 12 13 10 11 10 8 10 12 13 16 19 21 23 24 25 25 25 25 25 25 24 24
11 11 12 12 13 13 14 14 14 14 15 15 14 13 12 11 9 4 3 7 12 13 14 13 12 14 15 13 11 10 12 13 13 15 15 14 13 12 11 11 9 8 9 9 8 12 16 15 10 9 9 8 9 9 10 11 9 8 8 8 8 8 9 10 10 10 10 11 11 9 7 7 10 12 14 16 17 19 21 22 23 23 24 24 25 25 25 24
13 14 14 15 14 14 14 14 14 15 15 14 12 11 11 10 8 3 2 6 12 15 15 14 14 15 15 14 12 10 12 15 15 16 16 14 13 11 10 11 10 9 10 7 8 15 18 15 11 9 9 9 10 11 14 14 11 10 11 9 8 8 9 9 9 9 8 6 8 8 3 5 11 14 15 16 16 16 18 19 20 21 23 24 24 24 24 24
15 15 15 15 14 14 14 14 14 14 13 12 11 11 10 9 6 1 3 5 12 17 16 14 14 15 14 14 13 9 10 16 17 15 14 14 13 10 10 12 11 11 8 4 9 17 18 15 12 12 12 12 12 14 16 15 13 13 13 10 8 8 9 9 7 8 7 6 8 9 5 5 12 17 16 15 15 16 17 18 19 21 22 23 24 23 23 23
15 15 14 14 15 15 15 15 14 13 12 11 11 10 9 8 4 1 4 4 9 15 15 14 14 13 13 15 14 11 11 14 14 13 14 14 12 9 9 11 11 13 11 5 10 18 16 15 14 13 14 14 15 17 16 16 15 14 13 12 9 8 7 7 7 6 7 8 9 8 7 6 9 14 15 14 15 16 17 18 19 21 22 23 23 23 22 22
15 15 15 15 14 15 14 14 13 12 12 11 10 9 7 6 2 4 4 3 6 12 12 12 13 13 14 14 13 14 13 12 13 15 16 14 11 7 8 11 12 14 14 9 12 17 16 17 17 16 17 17 17 16 15 15 14 14 14 12 9 7 5 5 5 3 4 6 5 2 6 5 5 9 12 14 15 16 17 18 19 20 21 21 21 22 23 24
16 15 15 14 13 13 12 12 12 11 11 10 9 7 5 4 5 6 4 3 5 10 10 9 10 12 13 11 12 14 14 13 16 17 14 11 10 7 8 12 12 12 14 14 16 17 16 18 18 17 19 18 15 14 14 15 14 13 15 12 8 7 6 6 5 2 2 3 3 2 2 3 3 9 11 12 14 16 17 18 18 18 18 19 20 23 26 28
15 15 14 13 12 12 11 11 11 10 9 8 6 5 3 4 6 6 4 3 5 9 9 9 10 11 11 10 12 14 14 15 17 15 13 11 9 7 7 10 10 11 14 14 15 15 16 16 17 19 20 16 13 12 12 14 14 13 17 15 10 9 8 7 5 1 2 2 2 3 3 4 4 8 11 11 12 14 15 16 17 16 16 18 22 26 29 31
14 13 12 12 12 11 10 10 9 8 7 5 4 2 2 3 4 5 4 4 5 8 9 10 10 10 11 12 13 15 15 17 17 15 15 13 11 11 10 8 7 10 13 13 12 12 14 15 17 18 17 14 11 10 10 13 16 15 18 18 11 8 7 7 5 2 1 2 2 6 12 10 5 7 9 11 11 11 12 14 15 14 17 22 26 29 30 31
13 12 12 12 11 10 9 9 8 7 5 3 2 1 2 4 6 7 6 5 4 6 9 11 11 12 12 12 14 15 15 17 18 18 18 17 15 17 16 12 10 9 11 12 10 8 11 16 17 14 14 16 13 11 12 13 17 18 20 21 12 6 6 5 3 1 1 3 5 13 17 11 6 7 9 9 9 10 11 12 13 16 21 26 29 30 31 30
13 12 12 11 10 10 9 8 7 6 4 2 1 1 3 4 6 7 6 5 6 7 7 8 10 12 12 12 14 14 14 16 17 17 17 17 18 19 18 16 14 12 10 11 9 7 8 11 15 15 15 17 17 18 17 14 17 20 21 20 10 4 4 3 3 3 2 6 11 17 13 6 6 9 9 9 9 10 10 12 15 19 24 29 31 31 32 31
12 12 11 10 10 9 8 8 7 5 4 3 2 2 4 7 7 8 9 9 9 8 6 7 9 11 12 13 14 13 12 15 16 15 14 15 18 19 17 15 15 12 9 8 9 9 6 6 13 16 15 16 16 18 19 15 14 18 17 13 8 5 2 2 3 2 4 10 16 14 6 4 7 9 10 11 9 9 12 14 17 22 27 31 33 34 34 34
11 11 10 10 9 9 8 7 7 6 5 5 3 4 8 10 10 11 12 12 11 9 7 7 8 10 11 12 11 10 11 12 13 14 15 17 19 18 17 16 15 13 9 7 6 5 3 3 10 13 14 16 15 15 18 16 14 15 14 11 9 4 2 6 6 8 10 11 11 7 4 6 9 10 12 10 9 12 14 17 20 25 31 34 35 35 36 37
11 10 10 9 9 8 8 8 8 6 6 6 3 7 13 12 11 12 11 11 10 8 7 6 6 7 9 9 9 9 10 11 11 11 14 17 17 16 15 14 14 14 12 10 8 4 1 3 6 9 12 14 15 14 17 18 17 17 15 12 9 4 5 6 8 10 10 5 4 5 7 9 9 12 12 9 11 15 16 20 24 29 34 36 36 37 38 39
10 10 10 9 8 8 8 8 7 6 8 5 4 13 18 15 12 12 11 10 8 7 6 6 5 7 7 7 8 8 8 9 10 10 11 11 11 13 13 13 13 13 12 10 9 7 5 4 4 7 10 12 14 14 15 18 19 20 17 14 8 2 3 4 5 6 5 2 4 6 9 11 10 11 12 12 15 18 20 24 28 33 37 37 37 39 41 42
9 9 9 8 8 9 8 8 7 9 8 4 10 18 18 16 15 14 12 10 8 7 7 7 8 7 6 7 9 9 8 7 8 10 11 9 8 10 11 10 10 10 10 10 8 7 8 5 3 5 9 11 13 14 14 17 18 19 18 14 9 2 3 5 5 3 3 2 4 6 8 13 14 12 13 16 19 21 24 27 32 36 38 37 38 41 41 43
8 8 7 8 9 8 7 10 12 11 6 6 16 20 17 16 16 13 12 10 9 8 8 8 8 8 8 8 9 9 9 9 8 8 8 8 7 8 9 9 9 8 8 8 7 6 8 7 3 4 8 11 13 13 14 17 17 17 17 14 9 4 4 6 4 3 4 2 3 5 6 9 12 13 15 18 21 23 26 31 36 37 36 36 39 40 41 42
8 7 7 9 9 7 9 13 13 8 5 12 19 19 17 17 15 12 11 9 8 9 9 9 9 9 9 9 8 8 9 9 8 7 7 7 7 7 8 8 7 7 7 7 7 6 6 7 6 6 8 10 12 13 14 17 17 19 21 18 12 7 5 6 5 5 5 2 1 3 4 10 14 14 16 19 22 26 30 34 36 35 34 36 38 38 39 41
8 7 8 9 8 9 12 12 9 7 11 17 19 19 18 16 14 13 11 10 10 10 11 9 8 9 9 9 8 7 7 7 7 7 8 7 7 6 6 6 7 7 8 7 8 7 4 6 11 9 8 11 13 14 15 16 16 19 22 20 15 11 6 3 2 4 6 5 5 3 5 14 18 15 17 21 24 29 33 33 33 32 33 36 37 38 40 43
8 7 9 9 9 12 12 9 9 12 16 19 18 18 17 15 14 13 11 11 11 10 11 10 9 9 9 8 7 6 6 6 6 6 6 6 6 5 5 6 7 8 9 9 10 11 7 7 13 12 10 12 13 14 14 13 15 18 20 19 15 11 7 3 2 6 9 11 11 8 6 12 16 17 21 25 27 31 33 31 30 31 34 36 38 40 43 45
7 7 9 9 10 12 10 8 12 14 16 18 18 16 16 14 13 12 12 12 10 10 10 10 9 8 7 6 5 5 5 4 4 4 4 4 4 5 5 6 7 8 10 10 11 12 8 7 13 14 12 12 11 11 11 11 15 19 21 19 15 11 9 6 7 10 10 11 12 5 3 11 19 24 27 29 31 33 31 31 31 32 34 36 37 40 43 42
7 8 10 10 12 13 10 9 11 14 16 18 17 16 15 14 13 12 11 11 10 9 9 9 8 7 6 5 4 4 4 3 3 3 3 3 4 5 5 6 7 7 10 10 11 11 8 8 12 12 10 10 8 7 10 12 15 19 21 20 17 13 9 7 9 10 8 10 9 3 6 18 26 29 31 32 32 32 31 32 33 34 34 35 38 41 41 40
7 8 10 11 12 11 12 12 10 12 16 17 16 15 14 14 14 12 11 11 10 9 8 7 7 5 5 4 3 3 3 3 3 2 4 4 5 5 6 7 8 9 10 10 11 12 10 10 10 8 5 5 6 9 14 17 18 20 22 23 21 15 9 8 9 8 7 9 11 12 19 30 32 30 31 31 29 29 30 31 34 34 35 38 40 42 41 41
7 7 9 12 12 9 12 14 11 11 15 16 16 16 14 13 14 13 11 11 10 8 6 6 5 4 3 3 2 3 4 4 4 4 5 5 6 7 7 8 9 10 10 11 12 12 11 12 10 9 9 10 14 18 20 21 21 21 23 25 22 14 10 8 9 10 12 14 19 23 26 32 36 33 31 29 27 28 29 30 32 34 37 40 41 41 41 41
8 7 7 9 10 10 13 15 13 12 14 15 16 17 14 13 13 12 11 9 8 7 5 4 4 3 3 3 3 4 4 5 5 6 6 6 7 8 9 10 10 11 11 13 13 12 13 13 10 12 14 14 17 21 20 20 21 22 25 26 20 13 11 11 11 15 18 16 20 26 27 32 38 36 30 29 28 28 29 30 33 35 38 40 41 41 42 41
8 8 8 8 10 12 13 14 13 12 13 14 16 17 15 13 11 10 9 8 6 5 4 3 3 3 3 4 4 5 5 6 6 7 7 8 9 9 11 11 10 11 12 13 13 14 14 12 12 15 17 16 16 17 16 16 18 22 25 24 19 14 14 15 16 19 19 18 24 32 32 34 39 35 30 29 29 29 31 32 34 37 39 40 41 42 41 41
8 8 9 10 11 13 14 15 14 13 13 13 14 15 13 12 10 9 8 6 5 4 3 2 2 3 4 4 5 5 6 7 7 8 9 10 11 11 12 12 11 12 13 14 15 15 14 13 15 18 20 19 15 12 13 15 19 23 25 22 19 17 17 19 21 21 21 24 30 34 34 37 37 33 30 30 30 31 33 34 36 38 39 40 41 41 42 42
8 9 10 10 12 15 15 15 15 14 13 13 12 13 12 10 9 7 6 5 3 2 2 3 4 4 5 6 7 7 8 9 10 10 11 12 12 13 13 13 13 14 15 14 15 16 15 16 17 19 23 21 14 11 15 16 20 25 24 19 17 16 17 20 22 22 22 27 31 32 35 39 36 30 30 31 32 33 34 36 38 38 39 41 41 42 42 43
8 10 12 9 11 15 15 14 15 14 12 11 10 10 10 8 7 5 4 3 2 2 3 4 5 6 7 8 9 10 11 11 12 13 14 14 14 15 15 15 16 16 16 16 16 17 17 17 18 20 23 21 16 15 16 17 23 26 19 12 12 14 17 19 21 22 25 28 30 31 36 38 33 29 31 32 33 35 36 37 39 39 40 41 42 43 44 44
9 11 13 10 10 15 15 14 14 13 11 11 9 8 7 6 5 4 2 1 2 3 4 5 6 7 8 9 11 12 12 13 14 15 16 16 17 17 17 17 17 17 18 17 16 18 18 19 20 19 19 21 20 16 18 20 20 17 13 14 16 16 18 20 22 24 26 27 29 33 35 34 30 29 32 33 34 36 37 38 39 40 41 42 43 44 44 45
Wind_Direction
18 20 21 23 23 24 25 25 25 22 19 17 14 12 9 6 7 11 14 14 12 9 6 1 359 357 356 353 351 345 330 328 330 324 314 311 311 309 311 311 309 308 305 302 296 290 285 280 277 273 264 259 257 255 256 252 236 211 214 221 230 244 247 277 295 270 265 249 233 244 256 269 272 269 271 278 282 281 276 265 254 249 245 245 246 245 244 243
16 17 17 16 14 14 14 15 15 14 15 15 16 17 15 15 17 18 18 17 14 10 8 4 1 358 355 352 346 340 330 338 343 334 336 335 329 330 324 318 314 308 301 296 291 285 281 276 271 268 260 252 240 242 256 256 250 242 236 236 245 252 252 291 279 262 264 260 255 256 266 281 284 278 274 278 283 282 277 264 256 251 245 244 244 245 245 243
20 18 18 16 15 13 14 15 15 17 21 24 28 29 28 27 24 22 19 15 10 5 1 357 355 353 351 349 345 337 330 341 351 348 348 339 333 331 320 315 308 299 292 286 286 284 283 281 275 270 264 259 247 235 240 245 252 262 261 257 262 257 239 269 271 271 277 272 267 266 269 276 282 283 279 280 282 280 273 262 256 251 248 249 249 250 250 248
28 27 27 28 27 26 28 31 34 36 39 41 42 41 38 34 29 25 21 16 12 8 2 355 349 344 341 340 340 338 336 338 337 325 328 328 328 326 321 318 311 304 297 290 288 285 282 282 280 277 271 266 255 241 228 237 252 261 261 262 272 262 239 267 276 272 273 272 271 273 279 280 279 279 279 280 278 272 265 260 257 255 254 254 253 254 252 252
35 38 40 42 41 41 43 45 47 48 48 47 44 41 37 33 29 23 19 15 11 8 4 358 351 344 336 332 330 330 336 333 318 315 321 324 325 323 321 318 314 313 308 302 296 290 287 283 281 277 274 264 247 242 235 240 252 258 265 271 271 262 255 270 276 269 269 270 270 275 281 283 282 280 279 277 273 267 261 257 258 261 262 259 259 260 258 257
37 44 46 47 47 47 48 49 49 48 46 43 39 35 30 26 22 17 14 10 7 5 1 355 349 344 338 333 328 326 332 328 313 314 321 325 324 319 317 315 313 313 310 308 300 294 291 285 281 274 270 257 228 232 235 237 251 262 272 278 271 259 256 265 269 266 268 270 270 273 279 284 286 282 276 273 269 266 263 259 258 261 264 263 264 264 263 262
32 41 43 41 42 43 46 47 46 43 39 34 28 24 19 16 12 8 5 1 360 359 356 353 347 342 337 335 331 329 336 332 316 313 317 320 319 315 314 312 310 310 307 306 304 299 292 283 278 268 263 252 222 220 224 222 239 261 272 273 268 254 251 261 265 264 267 269 269 272 279 286 285 279 273 270 267 266 266 264 260 260 262 263 264 264 264 265
22 31 34 31 32 36 42 43 40 35 29 23 18 15 11 8 4 1 357 354 352 350 350 349 346 343 338 334 331 331 336 334 324 317 316 316 314 312 311 310 309 307 305 304 303 297 290 285 280 275 272 265 242 229 232 230 230 247 258 257 252 248 255 266 267 265 267 269 271 274 281 284 282 277 270 266 265 265 266 266 264 262 261 262 261 262 262 263
13 19 24 25 25 29 36 33 27 22 19 16 12 9 6 3 0 358 354 351 347 344 344 342 342 343 338 333 329 329 332 330 327 324 321 318 316 314 311 310 309 305 303 301 298 295 294 296 295 293 292 281 264 246 244 248 239 237 243 246 249 254 261 267 269 270 272 274 276 279 282 283 281 277 269 265 264 265 266 266 266 265 264 263 262 262 263 263
11 13 14 16 18 19 19 14 10 10 9 7 4 2 359 357 355 354 352 349 345 343 341 338 337 336 336 333 328 328 328 325 326 325 324 324 323 323 319 315 311 307 303 297 297 297 295 295 295 293 290 278 268 256 248 252 254 250 248 249 257 265 266 265 266 271 276 279 279 281 284 283 281 275 270 271 269 267 267 267 267 267 267 266 266 266 266 267
11 14 11 9 10 8 2 354 355 356 356 356 355 354 352 351 350 349 348 346 343 341 339 336 332 331 333 330 326 326 324 323 326 327 328 330 329 327 324 320 315 312 305 301 303 298 294 295 293 286 280 275 269 264 260 261 265 263 262 263 264 266 267 265 266 270 275 278 280 285 287 282 278 273 273 275 275 273 271 269 269 269 269 270 270 270 271 271
3 7 8 6 3 2 356 349 346 345 345 345 345 345 345 345 345 345 344 342 341 339 336 333 330 330 329 327 327 329 330 333 336 335 335 334 335 333 330 328 323 321 315 312 315 308 303 302 295 286 281 284 281 275 275 280 282 279 282 286 283 275 271 269 268 271 275 278 285 293 289 277 273 272 274 277 279 280 278 275 274 272 273 273 273 274 274 274
348 350 353 353 353 352 350 347 343 340 338 336 337 339 339 340 341 341 340 340 339 337 335 332 330 329 327 328 333 339 344 348 346 343 344 341 340 338 332 331 326 321 318 314 314 313 314 313 306 301 297 298 295 287 288 293 295 298 299 297 299 297 293 288 273 269 274 278 287 292 280 273 274 274 276 279 282 284 285 283 282 281 279 278 278 277 276 276
334 334 335 336 339 340 339 339 338 335 333 332 334 335 336 336 337 337 338 338 338 336 334 331 332 331 330 333 340 349 354 355 356 350 347 343 337 336 331 326 320 316 316 314 313 316 320 324 327 330 333 335 327 307 303 305 305 307 304 305 317 320 312 302 268 252 265 273 278 278 268 268 275 278 280 283 286 288 290 290 290 289 288 286 284 283 282 281
324 324 325 326 329 331 332 332 331 331 331 332 333 333 333 333 334 335 335 336 335 334 333 332 334 333 332 342 352 0 0 357 356 347 343 341 337 336 335 332 331 329 332 338 342 345 351 356 1 13 30 26 6 337 334 341 338 331 315 309 326 333 314 291 257 238 254 263 262 264 259 258 266 275 281 285 288 291 293 294 295 296 296 295 294 293 291 290
318 319 320 321 323 324 325 325 326 328 330 332 332 330 330 331 332 333 334 335 334 336 335 334 337 334 337 355 0 2 3 353 347 346 343 341 341 344 349 353 355 352 359 21 35 29 30 34 41 67 66 38 12 348 356 1 13 30 351 319 318 331 329 315 287 261 259 255 253 255 251 252 262 272 280 285 290 294 296 298 299 301 303 304 303 302 301 299
315 316 317 317 317 317 317 318 320 323 327 329 328 328 329 330 332 333 334 334 337 341 340 340 343 342 356 6 1 0 358 351 350 349 345 346 352 358 3 5 6 9 14 45 55 38 47 66 61 64 43 25 3 339 357 1 345 342 331 319 313 317 325 325 304 272 263 249 247 251 248 251 260 270 279 286 291 295 299 300 302 305 308 309 310 309 307 305
314 315 314 312 311 310 310 312 312 316 324 326 326 328 329 331 332 332 334 339 347 349 348 359 8 17 22 11 4 358 355 354 353 351 355 5 6 6 8 5 15 33 38 55 48 27 43 49 46 66 47 19 357 350 6 3 337 320 314 316 315 315 324 329 312 273 263 248 249 254 252 254 260 270 279 286 292 296 299 301 305 309 313 315 314 312 310 307
314 314 313 312 312 311 311 311 310 315 323 326 329 330 331 332 332 333 341 349 359 12 24 33 36 35 22 9 1 355 355 355 354 1 13 15 12 13 8 2 19 40 45 50 32 22 36 27 35 54 26 11 3 356 359 351 330 318 315 324 329 328 333 336 315 296 290 270 260 258 259 263 266 274 282 289 293 295 297 302 307 312 317 318 316 313 311 309
327 331 334 337 340 341 338 334 330 328 329 330 331 331 332 333 334 340 351 356 14 41 48 46 39 30 17 7 0 357 1 358 1 16 18 16 21 22 6 3 19 30 44 60 44 33 35 25 36 33 18 11 0 346 345 342 325 312 316 356 352 344 351 355 330 317 317 301 277 275 273 267 269 276 284 289 291 294 301 307 312 317 320 319 317 315 314 312
359 6 9 13 13 12 7 359 349 340 336 332 331 332 332 334 338 345 356 17 48 54 51 48 36 22 13 8 5 11 14 10 13 18 19 24 26 22 14 11 16 31 46 63 77 65 45 42 46 40 33 20 356 350 358 356 339 331 0 14 349 344 359 9 356 334 324 309 290 288 283 264 266 273 277 283 289 299 307 311 315 319 320 321 322 321 319 316
13 14 15 14 11 9 2 354 346 340 336 332 333 334 334 339 346 353 6 52 70 60 48 43 29 18 17 14 15 22 18 12 22 24 27 33 28 28 33 26 24 37 52 56 80 116 66 53 56 56 54 37 11 13 11 1 353 2 17 9 353 356 351 343 341 332 320 314 293 276 274 265 266 270 274 285 295 304 307 312 318 320 322 326 328 327 323 318
5 2 1 357 354 351 345 342 339 336 335 335 336 336 339 345 349 3 48 82 74 58 45 38 28 25 24 22 23 26 20 20 31 32 32 33 31 34 40 44 42 41 70 84 67 82 65 52 48 33 24 19 13 14 14 14 9 13 23 14 360 354 343 331 330 325 315 313 294 267 267 268 268 273 280 287 295 301 307 315 320 323 330 334 335 333 328 322
350 347 343 340 339 337 335 335 336 336 336 336 337 338 344 346 347 7 96 93 68 50 38 32 28 27 26 28 29 25 26 29 32 32 33 34 32 33 37 48 51 47 66 71 55 67 67 50 32 18 14 14 13 10 20 31 31 25 20 9 353 341 338 333 324 317 313 309 299 285 269 262 267 271 274 280 290 301 309 316 321 329 339 342 341 339 335 330
337 335 332 331 333 333 333 335 335 335 334 335 339 341 343 344 349 7 141 93 53 36 29 25 25 26 25 29 28 23 25 26 28 30 28 30 32 30 36 48 57 63 69 68 55 65 61 41 24 22 20 21 20 20 27 31 33 28 18 10 1 346 342 337 322 314 308 292 299 306 287 263 270 270 272 279 290 299 306 312 322 335 343 345 345 343 342 338
332 331 331 332 334 334 333 333 333 332 333 337 339 339 341 344 350 34 128 84 39 28 25 20 25 25 23 32 28 18 21 22 27 27 22 29 31 28 40 51 63 74 77 75 57 58 52 35 26 24 22 25 28 31 35 32 28 24 12 3 357 343 338 333 315 308 299 284 308 307 269 256 274 277 281 284 292 298 304 315 329 342 348 349 348 346 345 343
332 332 333 333 332 332 330 331 332 332 335 337 337 337 340 346 350 157 130 81 25 22 25 26 35 31 30 38 28 21 31 24 21 20 21 32 34 34 55 62 66 67 59 56 66 58 43 30 29 30 30 33 35 35 36 33 28 24 12 3 360 349 341 330 305 301 301 296 311 298 244 244 273 277 283 286 293 302 308 322 337 346 351 351 349 349 349 347
333 332 331 330 330 329 328 330 331 331 335 335 335 339 340 354 56 141 120 87 14 15 24 31 42 42 41 38 23 30 39 24 19 23 22 29 35 42 65 64 62 62 54 53 75 63 36 28 35 41 42 40 39 37 35 34 28 25 23 19 15 7 8 1 334 327 323 291 296 270 219 239 267 264 281 292 294 302 311 326 340 345 349 351 351 351 350 347
332 331 330 331 331 330 329 331 331 332 335 335 338 342 353 45 115 130 102 82 19 20 29 36 44 47 46 34 22 33 36 29 31 29 19 22 38 51 68 66 57 58 58 58 72 63 37 36 43 44 45 40 40 42 36 32 25 22 28 32 36 34 48 47 24 47 39 276 244 101 181 234 271 257 270 286 290 300 313 325 335 342 348 352 351 349 346 341
336 335 336 338 339 338 337 337 337 338 339 341 344 345 22 91 136 131 84 76 50 41 49 56 55 54 46 30 27 33 34 39 39 33 29 31 47 63 78 78 56 48 62 63 69 60 38 42 49 48 47 38 38 44 35 29 21 16 22 27 41 47 57 59 29 33 62 288 224 62 0 307 295 264 268 283 292 304 314 323 332 340 348 350 347 343 340 337
345 347 348 348 348 348 345 343 343 344 344 348 345 338 75 108 130 108 96 113 79 63 70 68 61 53 41 30 34 36 34 41 41 39 50 57 73 82 84 94 67 50 65 65 66 57 39 42 46 47 48 40 38 38 32 28 19 16 18 19 29 33 41 55 36 64 105 310 300 350 332 314 282 268 288 301 305 312 316 324 335 341 344 345 343 340 337 336
355 358 357 354 354 352 350 350 349 348 350 354 342 261 150 101 76 75 102 134 108 90 84 72 60 48 39 35 41 42 39 44 42 41 51 57 66 74 73 77 71 59 63 60 61 60 47 45 41 39 38 35 33 28 29 22 14 16 16 15 25 23 17 31 18 27 198 256 300 326 321 303 268 289 312 314 311 318 323 331 339 340 341 342 341 339 337 336
356 357 355 355 355 354 356 357 354 358 358 359 358 212 164 104 72 78 105 130 127 116 92 71 58 48 41 40 44 46 47 52 53 50 56 58 61 67 68 66 65 66 69 69 69 64 57 48 37 32 28 23 23 25 25 13 11 17 13 13 32 58 21 341 298 329 278 266 301 319 314 281 283 309 322 320 312 316 321 325 331 335 338 340 339 338 337 334
353 352 352 356 356 360 5 2 4 11 11 25 45 161 127 97 93 102 109 118 122 116 95 74 64 50 42 42 45 49 54 59 61 58 65 71 69 69 70 66 65 67 72 75 65 52 51 36 24 27 25 17 19 26 23 13 12 16 11 13 34 58 66 235 266 309 276 289 307 314 302 268 293 307 318 321 316 314 316 317 324 331 334 336 337 336 334 332
352 354 359 1 1 9 12 13 20 21 34 59 77 140 118 104 112 116 113 117 119 116 102 81 65 52 48 47 45 51 59 62 63 62 65 67 65 65 66 64 63 61 58 57 51 47 61 26 15 19 16 7 9 18 17 14 13 11 9 11 10 12 225 243 275 281 282 298 306 296 282 292 297 304 314 317 314 314 315 316 321 327 330 332 333 333 331 330
357 3 8 6 10 17 20 27 26 25 58 73 85 112 110 112 122 123 123 127 124 121 114 94 68 56 55 54 53 57 62 62 64 66 65 61 57 60 61 57 56 53 50 50 49 43 340 316 356 9 2 352 353 1 6 9 13 10 8 11 2 313 255 270 280 285 295 303 283 278 297 306 306 310 312 309 313 317 316 318 323 327 329 330 330 330 329 329
3 9 10 10 19 23 26 30 28 48 68 72 104 106 108 114 118 119 125 130 127 126 122 106 83 66 60 63 66 67 69 70 70 67 66 62 53 53 57 55 51 46 42 44 44 32 1 314 317 348 346 338 336 342 352 357 4 8 6 5 3 288 256 298 291 301 331 322 264 273 289 305 309 307 307 309 315 318 316 319 324 327 328 329 329 329 328 329
9 12 10 15 25 24 28 36 47 63 55 64 109 107 109 115 113 114 116 115 116 115 110 102 92 83 80 82 78 76 80 84 80 71 68 66 52 49 54 52 47 40 34 33 30 25 14 353 313 323 331 328 322 324 336 340 350 4 4 358 2 357 270 315 318 314 332 314 286 278 288 303 303 296 303 311 314 315 316 319 323 326 328 328 327 327 328 331
17 16 14 24 28 27 42 49 51 54 43 86 108 109 113 116 112 113 113 111 112 103 96 98 100 102 98 90 85 85 86 85 83 79 73 69 59 51 49 46 41 33 25 21 17 16 10 359 330 302 314 314 305 305 319 328 336 351 356 358 6 3 308 313 310 268 284 298 292 301 306 301 299 299 303 308 311 314 319 322 323 325 327 326 326 326 328 330
26 22 25 37 38 43 60 52 45 52 82 98 106 112 116 116 113 113 111 111 110 101 96 98 101 105 100 92 89 88 87 86 84 82 78 74 67 54 47 43 35 24 17 13 7 1 1 353 335 310 306 303 295 296 312 325 331 337 348 358 1 358 341 312 287 260 262 243 246 303 297 288 296 303 302 306 315 320 322 322 322 325 326 325 325 326 327 327
31 28 36 46 47 54 63 60 55 80 98 99 104 111 114 114 113 110 107 105 104 102 102 102 102 104 98 93 92 86 87 88 81 77 73 69 66 57 47 35 25 19 11 5 2 356 347 343 339 329 317 307 299 298 306 316 324 329 341 352 350 349 351 324 272 252 257 273 284 271 278 292 298 302 305 310 316 319 319 320 322 325 324 323 325 327 327 325
36 39 49 54 57 61 67 78 84 89 97 103 106 108 111 113 111 109 106 103 103 104 105 105 106 105 99 95 92 86 84 75 67 69 64 59 57 47 37 24 16 11 2 357 359 355 337 330 340 337 327 318 306 299 301 308 316 322 333 342 342 338 332 315 277 282 284 288 285 275 274 286 293 303 310 311 312 314 316 319 322 323 321 324 327 328 325 323
43 52 59 60 69 72 71 84 93 96 101 106 107 109 111 110 109 110 110 107 105 105 107 106 104 103 102 100 89 80 77 61 56 62 51 49 40 24 22 13 2 358 358 354 353 352 342 329 338 336 327 323 309 293 297 306 315 324 331 335 333 322 312 299 279 282 288 282 278 282 259 274 294 310 313 311 312 316 319 320 322 322 323 326 326 322 320 320
55 60 64 63 69 77 78 78 93 105 107 107 110 112 113 112 111 111 112 112 110 108 109 106 103 101 98 96 85 69 62 51 50 43 26 23 13 6 4 357 352 350 351 350 348 350 346 333 338 340 335 333 323 297 298 305 314 323 327 329 326 317 302 292 284 277 271 266 264 242 255 283 302 312 312 313 315 317 319 320 322 325 324 322 318 316 319 322
59 61 67 68 65 77 88 81 81 101 108 110 113 112 113 116 115 115 117 117 115 114 114 109 104 100 86 79 72 58 46 36 31 8 358 358 349 350 347 341 342 342 342 344 343 343 340 332 337 347 338 316 305 301 303 305 306 314 322 325 323 312 289 284 287 268 255 261 258 258 278 295 308 313 313 316 315 314 317 318 321 324 321 318 317 319 324 326
61 62 71 76 73 79 96 93 88 97 106 113 116 114 116 119 118 120 121 120 118 115 115 110 101 94 80 56 31 30 21 14 9 348 342 341 334 334 334 329 329 332 335 337 337 338 335 328 327 328 320 301 296 302 304 300 295 301 316 322 318 303 281 282 283 280 290 287 276 281 293 303 311 317 319 318 313 312 315 317 319 320 318 318 320 322 325 326
67 71 73 83 87 89 95 98 99 103 109 117 118 117 120 121 119 120 119 118 120 116 111 107 94 80 66 36 16 13 2 353 349 337 330 329 327 326 324 321 321 322 326 330 333 334 331 328 318 314 320 315 305 305 303 295 290 295 309 317 314 293 271 278 291 303 307 292 286 303 311 306 311 321 325 317 312 312 314 316 318 318 318 320 322 323 325 325
69 78 81 87 99 102 102 103 105 110 116 120 120 120 123 124 122 122 121 120 120 115 105 94 77 54 38 25 10 2 353 343 338 333 326 322 320 319 320 320 317 316 320 322 326 329 329 329 322 314 320 323 313 306 303 297 292 296 305 313 313 293 275 279 293 305 303 287 296 314 315 307 314 327 325 314 311 314 316 317 318 319 321 322 322 324 325 324
73 82 90 96 105 109 110 110 111 115 121 122 122 123 124 127 126 124 124 122 116 108 91 60 31 13 5 355 345 343 340 333 330 329 326 323 320 317 317 316 313 316 319 319 321 326 327 327 323 317 319 325 321 308 305 300 295 300 308 310 307 297 283 282 291 300 299 296 306 315 311 311 322 329 319 311 313 316 318 318 320 321 321 321 322 323 324 323
82 88 90 99 111 112 112 115 116 117 121 123 124 124 125 128 127 124 122 117 105 87 63 31 8 356 346 336 332 331 328 325 325 324 323 322 320 318 316 314 313 313 317 319 318 319 323 325 325 321 319 325 330 316 309 304 299 305 310 306 298 291 283 286 295 301 301 302 311 313 307 314 327 326 313 312 316 318 319 320 320 320 320 321 323 324 324 324
91 97 92 93 111 115 116 120 119 120 125 127 126 126 128 128 125 122 115 101 77 30 21 11 357 347 342 337 333 329 327 325 323 321 320 318 317 317 314 314 315 311 310 314 315 316 319 318 322 324 318 322 332 323 312 307 302 304 309 305 293 286 287 295 299 303 306 308 311 309 307 316 327 321 312 315 318 318 319 319 317 318 320 322 323 324 325 325
93 99 99 101 114 117 118 120 120 124 131 130 126 127 128 126 125 119 95 64 20 356 355 351 343 339 338 336 332 330 327 325 323 321 320 318 315 314 311 310 313 312 307 306 309 315 317 313 320 325 313 315 328 323 312 311 307 304 311 314 307 299 296 297 299 305 312 312 311 310 312 320 324 316 314 318 318 318 318 317 317 319 321 322 324 325 324 324